Date String (YYYY-MM-DD hh:mm:ss) UTC,Instrument flags,absolute air pressure of the measurement (hPa),sample flow rate (lpm),inlet stack bypass flow (lpm),air temperature of the measurement (°C),ambient temperature measured by the external sensor (°C),aerosol sample conditioner tube jacket temperature (°C),OPC LED temperature (°C),internal box temperature (°C),relative humidity of the measurement (%),span deviation,mass concentration of particles derived from Lorenz-Mie calculation of OPC scattering (μg/m³),mass concentration of particles derived from Lorenz-Mie calculation of OPC scattering (μg/m³),mass concentration of particles derived from Lorenz-Mie calculation of OPC scattering (μg/m³)
DateTimeUTC,F1_M11,P_M11,Q1_M11,Q2_M11,T1_M11,T2_M11,T3_M11,T4_M11,T5_M11,U1_M11,ZSPAN_M11,X2_M11,X0_M11,X1_M11
2023-07-09 10:00:00,SystemResetWarning,0832.0,5.02,000.00,030.1,028.7,000.0,038.6,031.6,33.4,-002.4,0009.92,0020.65,0008.57
2023-07-09 10:01:00,SystemResetWarning,0832.0,4.98,000.00,030.1,028.7,000.0,038.6,031.6,33.4,-002.3,0009.90,0019.67,0008.60
2023-07-09 10:02:00,SystemResetWarning,0832.0,5.00,000.00,030.1,028.7,000.0,038.6,031.6,33.3,-002.6,0009.91,0019.19,0008.61
2023-07-09 10:03:00,SystemResetWarning,0832.0,5.00,000.00,030.1,028.7,000.0,038.6,031.6,33.2,-002.8,0009.97,0019.84,0008.61
2023-07-09 10:04:00,SystemResetWarning,0832.0,5.00,000.00,030.1,028.7,000.0,038.6,031.6,33.2,-003.0,0009.99,0019.20,0008.60
2023-07-09 10:05:00,SystemResetWarning,0832.0,5.00,000.00,030.1,028.7,000.0,038.6,031.6,33.1,-002.7,0009.98,0018.82,0008.59
2023-07-09 10:06:00,SystemResetWarning,0831.9,5.01,000.00,030.1,028.7,000.0,038.7,031.6,33.3,-002.9,0009.99,0018.25,0008.61
2023-07-09 10:07:00,SystemResetWarning,0831.9,5.00,000.00,030.1,028.7,000.0,038.7,031.6,33.3,-002.6,0010.05,0018.22,0008.63
2023-07-09 10:08:00,SystemResetWarning,0831.9,5.01,000.00,030.1,028.7,000.0,038.7,031.6,33.2,-002.8,0010.10,0018.65,0008.67
2023-07-09 10:09:00,SystemResetWarning,0831.8,5.00,000.00,030.2,028.8,000.0,038.7,031.6,33.1,-002.5,0010.15,0018.21,0008.71
2023-07-09 10:10:00,SystemResetWarning,0832.0,5.00,000.00,030.2,028.8,000.0,038.7,031.7,33.1,-002.8,0010.20,0018.04,0008.74
2023-07-09 10:11:00,SystemResetWarning,0831.9,5.00,000.00,030.2,028.8,000.0,038.7,031.7,33.1,-003.1,0010.22,0017.94,0008.77
2023-07-09 10:12:00,SystemResetWarning,0831.7,5.00,000.00,030.2,028.8,000.0,038.7,031.7,33.1,-003.1,0010.25,0018.12,0008.81
2023-07-09 10:13:00,SystemResetWarning,0831.7,5.01,000.00,030.2,028.8,000.0,038.7,031.7,33.1,-002.9,0010.31,0018.61,0008.85
2023-07-09 10:14:00,SystemResetWarning,0831.7,4.99,000.00,030.2,028.8,000.0,038.7,031.7,33.1,-002.9,0010.35,0018.01,0008.87
2023-07-09 10:15:00,SystemResetWarning,0831.7,4.99,000.00,030.2,028.7,000.0,038.7,031.7,33.1,-002.9,0010.37,0017.92,0008.92
2023-07-09 10:16:00,SystemResetWarning,0831.8,5.00,000.00,030.2,027.1,000.0,038.6,031.6,33.1,-003.0,0010.43,0018.66,0008.96
2023-07-09 10:17:00,SystemResetWarning,0831.7,5.00,000.00,030.1,025.6,000.0,038.5,031.4,33.2,-003.1,0010.47,0019.72,0008.98
2023-07-09 10:18:00,SystemResetWarning,0831.7,5.01,000.00,030.0,025.3,000.0,038.4,030.9,33.4,-003.3,0010.49,0020.40,0009.00
2023-07-09 10:19:00,SystemResetWarning,0832.1,5.01,000.00,029.8,025.6,000.0,038.4,030.8,33.7,-003.3,0010.52,0020.41,0009.01
2023-07-09 10:20:00,SystemResetWarning,0832.0,4.99,000.00,029.7,026.0,000.0,038.4,030.8,33.9,-003.6,0010.55,0021.87,0009.01
2023-07-09 10:21:00,SystemResetWarning,0832.0,5.00,000.00,029.7,026.4,000.0,038.4,030.9,34.0,-003.5,0010.55,0022.06,0009.02
2023-07-09 10:22:00,SystemResetWarning,0831.8,5.00,000.00,029.7,026.7,000.0,038.4,031.0,34.0,-003.2,0010.58,0022.22,0009.03
2023-07-09 10:23:00,SystemResetWarning,0831.7,5.00,000.00,029.7,027.1,000.0,038.4,031.0,34.0,-003.1,0010.66,0022.60,0009.04
2023-07-09 10:24:00,SystemResetWarning,0831.7,4.99,000.00,029.6,027.3,000.0,038.4,031.0,34.0,-003.0,0010.65,0022.75,0009.05
2023-07-09 10:25:00,SystemResetWarning,0831.7,5.00,000.00,029.6,027.5,000.0,038.4,031.1,34.0,-003.0,0010.68,0022.72,0009.07
2023-07-09 10:26:00,SystemResetWarning,0831.7,5.01,000.00,029.7,027.7,000.0,038.3,031.1,34.1,-002.9,0010.69,0023.33,0009.07
2023-07-09 10:27:00,SystemResetWarning,0831.6,5.00,000.00,029.7,027.8,000.0,038.3,031.1,34.1,-002.6,0010.73,0022.71,0009.09
2023-07-09 10:28:00,SystemResetWarning,0831.6,5.01,000.00,029.7,027.9,000.0,038.3,031.2,34.0,-002.5,0010.77,0021.82,0009.11
2023-07-09 10:29:00,SystemResetWarning,0831.6,4.99,000.00,029.7,028.0,000.0,038.3,031.2,34.0,-002.1,0010.73,0021.11,0009.12
2023-07-09 10:30:00,SystemResetWarning,0831.6,4.99,000.00,029.7,028.1,000.0,038.3,031.2,33.9,-001.9,0010.70,0020.90,0009.12
2023-07-09 10:31:00,SystemResetWarning,0831.6,5.00,000.00,029.7,028.1,000.0,038.3,031.2,34.0,-001.6,0010.64,0020.03,0009.12
2023-07-09 10:32:00,SystemResetWarning,0831.6,5.01,000.00,029.7,028.2,000.0,038.3,031.2,33.9,-001.5,0010.62,0019.51,0009.11
2023-07-09 10:33:00,SystemResetWarning,0831.6,5.00,000.00,029.7,028.2,000.0,038.3,031.3,33.9,-001.4,0010.61,0019.71,0009.10
2023-07-09 10:34:00,SystemResetWarning,0831.6,5.01,000.00,029.7,028.3,000.0,038.3,031.3,33.9,-001.5,0010.59,0020.03,0009.12
2023-07-09 10:35:00,SystemResetWarning,0831.6,4.99,000.00,029.7,028.3,000.0,038.3,031.3,33.9,-001.7,0010.58,0019.67,0009.11
2023-07-09 10:36:00,SystemResetWarning,0831.6,5.00,000.00,029.8,028.3,000.0,038.3,031.3,33.9,-001.6,0010.60,0019.97,0009.11
2023-07-09 10:37:00,SystemResetWarning,0831.6,5.01,000.00,029.8,028.4,000.0,038.3,031.3,33.8,-001.6,0010.57,0019.41,0009.11
2023-07-09 10:38:00,SystemResetWarning,0831.6,5.00,000.00,029.8,028.4,000.0,038.3,031.3,33.9,-001.8,0010.48,0019.07,0009.08
2023-07-09 10:39:00,SystemResetWarning,0831.6,5.01,000.00,029.8,028.4,000.0,038.3,031.3,33.9,-001.6,0010.43,0018.87,0009.05
2023-07-09 10:40:00,SystemResetWarning,0831.7,4.99,000.00,029.8,028.4,000.0,038.4,031.3,33.9,-001.7,0010.43,0018.70,0009.03
2023-07-09 10:41:00,SystemResetWarning,0831.6,4.99,000.00,029.8,028.5,000.0,038.4,031.4,33.9,-002.0,0010.41,0018.08,0009.02
2023-07-09 10:42:00,SystemResetWarning,0831.7,4.99,000.00,029.8,028.5,000.0,038.4,031.4,33.8,-001.9,0010.42,0017.45,0009.02
2023-07-09 10:43:00,SystemResetWarning,0831.7,5.00,000.00,029.8,028.5,000.0,038.4,031.4,33.8,-001.9,0010.40,0018.63,0009.00
2023-07-09 10:44:00,SystemResetWarning,0831.6,5.02,000.00,029.9,028.5,000.0,038.4,031.4,33.8,-002.0,0010.36,0018.86,0008.99
2023-07-09 10:45:00,SystemResetWarning,0831.6,5.01,000.00,029.9,028.5,000.0,038.4,031.4,33.8,-002.2,0010.32,0018.81,0008.97
2023-07-09 10:46:00,SystemResetWarning,0831.6,5.00,000.00,029.9,028.5,000.0,038.4,031.4,33.7,-002.2,0010.28,0018.67,0008.95
2023-07-09 10:47:00,SystemResetWarning,0831.6,5.00,000.00,029.9,028.5,000.0,038.4,031.4,33.7,-002.6,0010.22,0018.25,0008.93
2023-07-09 10:48:00,SystemResetWarning,0831.6,4.99,000.00,029.9,028.5,000.0,038.4,031.4,33.6,-002.8,0010.16,0017.98,0008.90
2023-07-09 10:49:00,SystemResetWarning,0831.6,5.00,000.00,029.9,028.5,000.0,038.4,031.4,33.7,-003.0,0010.19,0018.16,0008.90
2023-07-09 10:50:00,SystemResetWarning,0831.6,4.99,000.00,029.9,028.5,000.0,038.4,031.4,33.7,-003.2,0010.21,0018.50,0008.89
2023-07-09 10:51:00,SystemResetWarning,0831.6,5.00,000.00,029.9,028.5,000.0,038.5,031.4,33.7,-003.3,0010.23,0020.19,0008.89
2023-07-09 10:52:00,SystemResetWarning,0831.6,5.00,000.00,029.9,028.6,000.0,038.5,031.4,33.7,-003.2,0010.20,0020.83,0008.88
2023-07-09 10:53:00,SystemResetWarning,0831.6,5.00,000.00,030.0,028.6,000.0,038.5,031.5,33.6,-003.2,0010.18,0021.98,0008.87
2023-07-09 10:54:00,SystemResetWarning,0831.6,5.00,000.00,030.0,028.6,000.0,038.5,031.5,33.6,-003.3,0010.16,0021.07,0008.86
2023-07-09 10:55:00,SystemResetWarning,0831.6,5.00,000.00,030.0,028.6,000.0,038.5,031.5,33.6,-003.2,0010.16,0020.68,0008.85
2023-07-09 10:56:00,SystemResetWarning,0831.6,5.01,000.00,030.0,028.6,000.0,038.5,031.5,33.5,-003.0,0010.21,0020.11,0008.84
2023-07-09 10:57:00,SystemResetWarning,0831.5,5.00,000.00,030.0,028.6,000.0,038.5,031.5,33.4,-003.0,0010.21,0020.11,0008.82
2023-07-09 10:58:00,SystemResetWarning,0831.5,5.01,000.00,030.0,028.6,000.0,038.5,031.5,33.3,-002.8,0010.27,0021.15,0008.81
2023-07-09 10:59:00,SystemResetWarning,0831.5,5.01,000.00,030.0,028.6,000.0,038.5,031.5,33.5,-002.8,0010.33,0023.92,0008.82
